Weather History for Mexicali, Mexico

Change the Weather History Date:

Saturday, November 24, 2012

  Actual Average Record
Temperature  
Mean Temperature 66 °F -  
Max Temperature 82 °F 69 °F 84 °F (1998)
Min Temperature 50 °F 43 °F 37 °F (2003)
Cooling Degree Days 1    
Growing Degree Days 16 (Base 50)    
Moisture  
Dew Point 32 °F    
Average Humidity 29    
Maximum Humidity 54    
Minimum Humidity 14    
Precipitation  
Precipitation 0.00 in - - ()
Sea Level Pressure  
Sea Level Pressure 30.00 in    
Wind  
Wind Speed 4 mph ()    
Max Wind Speed 9 mph    
Max Gust Speed -    
Visibility 10.0 miles    
Events      
Averages and records for this station are not official NWS values.
T = Trace of Precipitation, MM = Missing Value Source: Averaged Metar Reports

Daily Weather History Graph

Daily Weather History Graph

Search for Another Location

Airport:

Trip Planner

Search our weather history database for the weather conditions in past years. The results will help you decide how hot, cold, wet, or windy it might be!

Date:

Astronomy

Nov. 24, 2012 Rise Set
Actual Time 6:19 AM PST 4:36 PM PST
Civil Twilight 5:52 AM PST 5:02 PM PST
Nautical Twilight 5:22 AM PST 5:32 PM PST
Astronomical Twilight 4:53 AM PST 6:02 PM PST
Moon 2:15 PM PST (11/24) 2:49 AM PST (11/24)
Length of Visible Light 11h 09m
Length of Day
10h 16m
Waxing Gibbous, 88% of the Moon is Illuminated
Nov 24
Waxing Gibbous
Nov 28
Full
Dec 6
Last Quarter
Dec 13
New
Dec 19
First Quarter

Hourly Weather History & Observations

Time (PST) Temp. Dew Point Humidity Pressure Visibility Wind Dir Wind Speed Gust Speed Precip Events Conditions
12:45 AM 57.2 °F 28.4 °F 33% 30.11 in 10.0 mi WNW 8.1 mph - N/A   Clear
4:46 AM 50.0 °F 33.8 °F 54% - 10.0 mi Calm Calm - N/A   Clear
5:50 AM 51.8 °F 35.6 °F 54% - 10.0 mi Calm Calm - N/A   Clear
6:45 AM 53.6 °F 33.8 °F 47% 30.14 in 10.0 mi North 4.6 mph - N/A   Clear
7:43 AM 59.0 °F 33.8 °F 39% 30.08 in 10.0 mi Calm Calm - N/A   Clear
8:41 AM 64.4 °F 32.0 °F 30% 30.08 in 10.0 mi NW 4.6 mph - N/A   Clear
9:23 AM 69.8 °F 32.0 °F 25% 30.08 in 10.0 mi Calm Calm - N/A   Clear
9:46 AM 73.4 °F 33.8 °F 23% 30.10 in 10.0 mi NW 9.2 mph - N/A   Clear
10:40 AM 77.0 °F 35.6 °F 22% 30.05 in 10.0 mi WNW 8.1 mph - N/A   Clear
11:42 AM 80.6 °F 28.4 °F 15% 30.02 in 10.0 mi WNW 4.6 mph - N/A   Clear
12:42 PM 82.4 °F 28.4 °F 14% 30.01 in 10.0 mi NW 8.1 mph - N/A   Clear
1:46 PM 82.4 °F 28.4 °F 14% 29.95 in 10.0 mi North 5.8 mph - N/A   Clear
2:42 PM 82.4 °F 28.4 °F 14% 29.94 in 10.0 mi NW 6.9 mph - N/A   Clear
3:44 PM 82.4 °F 28.4 °F 14% 29.96 in 10.0 mi WNW 5.8 mph - N/A   Clear
4:47 PM 77.0 °F 33.8 °F 21% 29.92 in 10.0 mi West 5.8 mph - N/A   Clear
5:54 PM 75.2 °F 30.2 °F 19% 29.92 in 10.0 mi West 5.8 mph - N/A   Clear
6:46 PM 71.6 °F 30.2 °F 22% 29.96 in 10.0 mi WNW 5.8 mph - N/A   Clear
7:49 PM 68.0 °F 32.0 °F 26% 29.92 in 10.0 mi Calm Calm - N/A   Clear
8:45 PM 66.2 °F 35.6 °F 32% 29.92 in 10.0 mi NW 5.8 mph - N/A   Clear
9:54 PM 60.8 °F 35.6 °F 39% 29.97 in 10.0 mi Calm Calm - N/A   Clear
10:42 PM 60.8 °F 35.6 °F 39% 29.91 in 10.0 mi North 5.8 mph - N/A   Clear
11:48 PM 60.8 °F 37.4 °F 42% 29.90 in 10.0 mi Calm Calm - N/A   Clear